QPF
0.00 0.00 0.00 0.00 0.00 0.00 0.00 0.00 0.00 0.00 0.00 0.00 0.00 0.00 0.00 0.00 0.00 0.00 0.00 0.00 0.00 0.00 0.00 0.00 0.00 0.00 0.00 0.00 0.00 0.00 0.00 0.00 0.00 0.00 0.00 0.00 0.00 0.00 0.00 0.00 0.00 0.00 0.00 0.00 0.00
0.00 0.00 0.00 0.00 0.00 0.00 0.00 0.00 0.00 0.00 0.00 0.00 0.00 0.00 0.00 0.00 0.00 0.00 0.00 0.00 0.00 0.00 0.00 0.00 0.00 0.00 0.00 0.00 0.00 0.00 0.00 0.00 0.00 0.00 0.00 0.00 0.00 0.00 0.00 0.00 0.00 0.00 0.00 0.00 0.00
0.00 0.00 0.00 0.00 0.00 0.00 0.00 0.00 0.00 0.00 0.00 0.00 0.00 0.00 0.00 0.00 0.00 0.00 0.00 0.00 0.00 0.00 0.00 0.00 0.00 0.00 0.00 0.00 0.00 0.00 0.00 0.00 0.00 0.00 0.00 0.00 0.00 0.00 0.00 0.00 0.00 0.00 0.00 0.00 0.00
0.00 0.00 0.00 0.00 0.00 0.00 0.00 0.00 0.00 0.00 0.00 0.00 0.00 0.00 0.00 0.00 0.00 0.00 0.00 0.00 0.00 0.00 0.00 0.00 0.00 0.00 0.00 0.00 0.00 0.00 0.00 0.00 0.00 0.00 0.00 0.00 0.00 0.00 0.00 0.00 0.00 0.00 0.00 0.00 0.00
0.00 0.00 0.00 0.00 0.00 0.00 0.00 0.00 0.00 0.00 0.00 0.00 0.00 0.00 0.00 0.00 0.00 0.00 0.00 0.00 0.00 0.00 0.00 0.00 0.00 0.00 0.00 0.00 0.00 0.00 0.00 0.00 0.00 0.00 0.00 0.00 0.00 0.00 0.00 0.00 0.00 0.00 0.00 0.00 0.00
0.00 0.00 0.00 0.00 0.00 0.00 0.00 0.00 0.00 0.00 0.00 0.00 0.00 0.00 0.00 0.00 0.00 0.00 0.00 0.00 0.00 0.00 0.00 0.00 0.00 0.00 0.00 0.00 0.00 0.00 0.00 0.00 0.00 0.00 0.00 0.00 0.00 0.00 0.00 0.00 0.00 0.00 0.00 0.00 0.00
0.00 0.00 0.00 0.00 0.00 0.00 0.00 0.00 0.00 0.00 0.00 0.00 0.00 0.00 0.00 0.00 0.00 0.00 0.00 0.00 0.00 0.00 0.00 0.00 0.00 0.00 0.00 0.00 0.00 0.00 0.00 0.00 0.00 0.00 0.00 0.00 0.00 0.00 0.00 0.00 0.00 0.00 0.00 0.00 0.00
0.00 0.00 0.00 0.00 0.00 0.00 0.00 0.00 0.00 0.00 0.00 0.00 0.00 0.00 0.00 0.00 0.00 0.00 0.00 0.00 0.00 0.00 0.00 0.00 0.00 0.00 0.00 0.00 0.00 0.00 0.00 0.00 0.00 0.00 0.00 0.00 0.00 0.00 0.00 0.00 0.00 0.00 0.00 0.00 0.00
0.00 0.00 0.00 0.00 0.00 0.00 0.00 0.00 0.00 0.00 0.00 0.00 0.00 0.00 0.00 0.00 0.00 0.00 0.00 0.00 0.00 0.00 0.00 0.00 0.00 0.00 0.00 0.00 0.00 0.00 0.00 0.00 0.00 0.00 0.00 0.00 0.00 0.00 0.00 0.00 0.00 0.00 0.00 0.00 0.00
0.00 0.00 0.00 0.00 0.00 0.00 0.00 0.00 0.00 0.00 0.00 0.00 0.00 0.00 0.00 0.00 0.00 0.00 0.00 0.00 0.00 0.00 0.00 0.00 0.00 0.00 0.00 0.00 0.00 0.00 0.00 0.00 0.00 0.00 0.00 0.00 0.00 0.00 0.00 0.00 0.00 0.00 0.00 0.00 0.00
0.00 0.00 0.00 0.00 0.00 0.00 0.00 0.00 0.00 0.00 0.00 0.00 0.00 0.00 0.00 0.00 0.00 0.00 0.00 0.00 0.00 0.00 0.00 0.00 0.00 0.00 0.00 0.00 0.00 0.00 0.00 0.00 0.00 0.00 0.00 0.00 0.00 0.00 0.00 0.00 0.00 0.00 0.00 0.00 0.00
0.00 0.00 0.00 0.00 0.00 0.00 0.00 0.00 0.00 0.00 0.00 0.00 0.00 0.00 0.00 0.00 0.00 0.00 0.00 0.00 0.00 0.00 0.00 0.00 0.00 0.00 0.00 0.00 0.00 0.00 0.00 0.00 0.00 0.00 0.00 0.00 0.00 0.00 0.00 0.00 0.00 0.00 0.00 0.00 0.00
0.00 0.00 0.00 0.00 0.00 0.00 0.00 0.00 0.00 0.00 0.00 0.00 0.00 0.00 0.00 0.00 0.00 0.00 0.00 0.00 0.00 0.00 0.00 0.00 0.00 0.00 0.00 0.00 0.00 0.00 0.00 0.00 0.00 0.00 0.00 0.00 0.00 0.00 0.00 0.00 0.00 0.00 0.00 0.00 0.00
0.00 0.00 0.00 0.00 0.00 0.00 0.00 0.00 0.00 0.00 0.00 0.00 0.00 0.00 0.00 0.00 0.00 0.00 0.00 0.00 0.00 0.00 0.00 0.00 0.00 0.00 0.00 0.00 0.00 0.00 0.00 0.00 0.00 0.00 0.00 0.00 0.00 0.00 0.00 0.00 0.00 0.00 0.00 0.00 0.00
0.00 0.00 0.00 0.00 0.00 0.00 0.00 0.00 0.00 0.00 0.00 0.00 0.00 0.00 0.00 0.00 0.00 0.00 0.00 0.00 0.00 0.00 0.00 0.00 0.00 0.00 0.00 0.00 0.00 0.00 0.00 0.00 0.00 0.00 0.00 0.00 0.00 0.00 0.00 0.00 0.00 0.00 0.00 0.00 0.00
0.00 0.00 0.00 0.00 0.00 0.00 0.00 0.00 0.00 0.00 0.00 0.00 0.00 0.00 0.00 0.00 0.00 0.00 0.00 0.00 0.00 0.00 0.00 0.00 0.00 0.00 0.00 0.00 0.00 0.00 0.00 0.00 0.00 0.00 0.00 0.00 0.00 0.00 0.00 0.00 0.00 0.00 0.00 0.00 0.00
0.00 0.00 0.00 0.00 0.00 0.00 0.00 0.00 0.00 0.00 0.00 0.00 0.00 0.00 0.00 0.00 0.00 0.00 0.00 0.00 0.00 0.00 0.00 0.00 0.00 0.00 0.00 0.00 0.00 0.00 0.00 0.00 0.00 0.00 0.00 0.00 0.00 0.00 0.00 0.00 0.00 0.00 0.00 0.00 0.00
0.00 0.00 0.00 0.00 0.00 0.00 0.00 0.00 0.00 0.00 0.00 0.00 0.00 0.00 0.00 0.00 0.00 0.00 0.00 0.00 0.00 0.00 0.00 0.00 0.00 0.00 0.00 0.00 0.00 0.00 0.00 0.00 0.00 0.00 0.00 0.00 0.00 0.00 0.00 0.00 0.00 0.00 0.00 0.00 0.00
0.00 0.00 0.00 0.00 0.00 0.00 0.00 0.00 0.00 0.00 0.00 0.00 0.00 0.00 0.00 0.00 0.00 0.00 0.00 0.00 0.00 0.00 0.00 0.00 0.00 0.00 0.00 0.00 0.00 0.00 0.00 0.00 0.00 0.00 0.00 0.00 0.00 0.00 0.00 0.00 0.00 0.00 0.00 0.00 0.00
0.00 0.00 0.00 0.00 0.00 0.00 0.00 0.00 0.00 0.00 0.00 0.00 0.00 0.00 0.00 0.00 0.00 0.00 0.00 0.00 0.00 0.00 0.00 0.00 0.00 0.00 0.00 0.00 0.00 0.00 0.00 0.00 0.00 0.00 0.00 0.00 0.00 0.00 0.00 0.00 0.00 0.00 0.00 0.00 0.00
0.00 0.00 0.00 0.00 0.00 0.00 0.00 0.00 0.00 0.00 0.00 0.00 0.00 0.00 0.00 0.00 0.00 0.00 0.00 0.00 0.00 0.00 0.00 0.00 0.00 0.00 0.00 0.00 0.00 0.00 0.00 0.00 0.00 0.00 0.00 0.00 0.00 0.00 0.00 0.00 0.00 0.00 0.00 0.00 0.00
0.00 0.00 0.00 0.00 0.00 0.00 0.00 0.00 0.00 0.00 0.00 0.00 0.00 0.00 0.00 0.00 0.00 0.00 0.00 0.00 0.00 0.00 0.00 0.00 0.00 0.00 0.00 0.00 0.00 0.00 0.00 0.00 0.00 0.00 0.00 0.00 0.00 0.00 0.00 0.00 0.00 0.00 0.00 0.00 0.00
0.00 0.00 0.00 0.00 0.00 0.00 0.00 0.00 0.00 0.00 0.00 0.00 0.00 0.00 0.00 0.00 0.00 0.00 0.00 0.00 0.00 0.00 0.00 0.00 0.00 0.00 0.00 0.00 0.00 0.00 0.00 0.00 0.00 0.00 0.00 0.00 0.00 0.00 0.00 0.00 0.00 0.00 0.00 0.00 0.00
0.00 0.00 0.00 0.00 0.00 0.00 0.00 0.00 0.00 0.00 0.00 0.00 0.00 0.00 0.00 0.00 0.00 0.00 0.00 0.00 0.00 0.00 0.00 0.00 0.00 0.00 0.00 0.00 0.00 0.00 0.00 0.00 0.00 0.00 0.00 0.00 0.00 0.00 0.00 0.00 0.00 0.00 0.00 0.00 0.00
0.00 0.00 0.00 0.00 0.00 0.00 0.00 0.00 0.00 0.00 0.00 0.00 0.00 0.00 0.00 0.00 0.00 0.00 0.00 0.00 0.00 0.00 0.00 0.00 0.00 0.00 0.00 0.00 0.00 0.00 0.00 0.00 0.00 0.00 0.00 0.00 0.00 0.00 0.00 0.00 0.00 0.00 0.00 0.00 0.00
0.01 0.00 0.00 0.00 0.00 0.00 0.00 0.00 0.00 0.00 0.00 0.00 0.00 0.00 0.00 0.00 0.00 0.00 0.00 0.00 0.00 0.00 0.00 0.00 0.00 0.00 0.00 0.00 0.00 0.00 0.00 0.00 0.00 0.00 0.00 0.00 0.00 0.00 0.00 0.00 0.00 0.00 0.00 0.00 0.00
0.00 0.00 0.00 0.00 0.00 0.00 0.00 0.00 0.00 0.00 0.00 0.00 0.00 0.00 0.00 0.00 0.00 0.00 0.00 0.00 0.00 0.00 0.00 0.00 0.00 0.01 0.00 0.00 0.00 0.00 0.00 0.00 0.00 0.00 0.00 0.00 0.00 0.00 0.00 0.00 0.00 0.00 0.00 0.00 0.00
MSLP
1021.11 1020.78 1020.52 1020.18 1019.77 1019.38 1018.93 1018.51 1017.99 1017.56 1017.11 1016.76 1016.42 1016.11 1015.81 1015.38 1014.80 1014.61 1015.08 1015.82 1015.29 1014.70 1014.11 1013.07 1012.66 1012.32 1012.22 1012.10 1012.29 1012.03 1011.78 1010.79 1009.99 1010.02 1010.31 1010.20 1010.34 1010.28 1010.37 1010.53 1010.55 1010.93 1011.88 1012.37 1012.95
1021.17 1020.82 1020.54 1020.25 1019.84 1019.44 1019.01 1018.48 1017.92 1017.55 1017.11 1016.67 1016.34 1016.00 1015.74 1015.43 1014.83 1015.03 1015.93 1015.50 1015.07 1014.81 1014.04 1013.25 1012.74 1012.69 1012.27 1012.03 1012.23 1012.30 1011.80 1011.08 1010.71 1010.70 1010.83 1010.78 1010.70 1010.60 1010.54 1010.60 1010.81 1011.43 1012.23 1012.89 1013.35
1021.28 1020.97 1020.64 1020.30 1019.84 1019.42 1018.98 1018.48 1017.93 1017.47 1016.99 1016.68 1016.24 1015.84 1015.54 1015.46 1014.99 1015.62 1015.73 1015.37 1014.90 1014.54 1014.09 1013.64 1013.17 1012.91 1012.39 1012.17 1012.04 1011.89 1011.84 1011.43 1011.21 1011.55 1011.70 1011.43 1011.14 1010.78 1010.84 1010.87 1010.68 1011.16 1011.91 1012.92 1013.61
1021.46 1021.08 1020.69 1020.29 1019.82 1019.36 1018.85 1018.37 1017.91 1017.46 1016.94 1016.55 1016.28 1015.92 1015.46 1015.13 1015.94 1015.92 1015.67 1015.24 1014.78 1014.30 1013.90 1013.42 1012.91 1012.64 1012.33 1012.16 1012.05 1012.40 1011.70 1011.76 1011.76 1012.03 1012.19 1011.88 1011.70 1011.34 1011.01 1010.84 1010.87 1010.94 1011.70 1012.58 1013.68
1021.61 1021.25 1020.84 1020.37 1019.86 1019.32 1018.78 1018.23 1017.71 1017.28 1016.98 1016.60 1016.21 1015.93 1015.61 1015.02 1015.61 1015.67 1015.54 1015.13 1014.63 1014.22 1013.96 1013.82 1013.27 1013.00 1012.64 1012.16 1012.25 1012.43 1012.12 1012.04 1012.04 1012.29 1012.40 1012.21 1012.11 1011.86 1011.18 1010.81 1010.85 1011.24 1011.71 1012.55 1013.18
1021.79 1021.34 1020.81 1020.29 1019.69 1019.05 1018.54 1018.02 1017.48 1017.08 1016.83 1016.43 1016.06 1015.78 1015.57 1015.38 1015.80 1015.56 1015.37 1015.20 1015.02 1014.55 1014.26 1014.09 1014.08 1013.83 1013.48 1012.90 1012.69 1012.53 1012.50 1012.40 1012.20 1012.26 1012.34 1012.53 1012.14 1011.75 1010.98 1010.80 1011.07 1011.43 1011.90 1012.57 1013.19
1021.83 1021.44 1020.93 1020.37 1019.70 1018.94 1018.34 1017.79 1017.20 1016.90 1016.81 1016.46 1016.06 1015.68 1015.18 1016.22 1015.74 1015.70 1015.36 1015.27 1015.23 1015.01 1014.54 1014.53 1014.42 1014.19 1013.77 1013.18 1013.25 1013.03 1012.86 1012.26 1011.87 1012.20 1012.56 1012.61 1012.16 1011.38 1011.21 1011.24 1011.50 1011.79 1011.98 1012.40 1013.16
1021.81 1021.48 1020.97 1020.40 1019.67 1018.77 1017.98 1017.44 1016.94 1016.68 1016.58 1016.33 1016.13 1015.52 1015.79 1016.12 1015.95 1015.68 1015.38 1015.10 1015.29 1015.14 1015.10 1014.95 1014.72 1014.19 1013.93 1013.80 1013.41 1013.24 1012.91 1012.53 1012.03 1012.18 1012.73 1013.08 1011.89 1011.00 1011.15 1011.59 1011.78 1011.87 1011.98 1012.48 1013.03
1021.78 1021.46 1021.08 1020.49 1019.79 1018.75 1017.60 1016.94 1016.69 1016.52 1016.29 1016.14 1016.04 1015.48 1015.98 1016.19 1016.09 1016.00 1015.81 1015.72 1015.53 1015.27 1015.11 1014.86 1014.88 1014.55 1014.25 1014.18 1013.88 1013.26 1013.24 1012.72 1012.44 1012.29 1012.60 1013.04 1012.15 1011.34 1011.37 1011.75 1012.04 1012.10 1012.27 1012.64 1013.23
1021.61 1021.29 1021.10 1020.62 1019.92 1019.01 1017.79 1016.38 1016.06 1016.32 1015.94 1015.70 1015.61 1016.02 1016.23 1016.48 1016.34 1016.27 1015.93 1015.83 1015.47 1015.16 1015.06 1014.93 1014.60 1014.49 1014.41 1014.36 1014.60 1014.07 1013.74 1012.99 1012.61 1012.70 1012.87 1013.03 1012.46 1011.76 1011.38 1011.50 1012.06 1012.02 1012.22 1012.61 1013.13
1021.37 1021.19 1021.07 1020.58 1020.02 1019.21 1018.24 1016.70 1017.09 1017.02 1017.20 1017.36 1017.32 1017.10 1016.67 1016.71 1016.39 1016.00 1016.07 1015.91 1015.41 1015.19 1014.96 1014.99 1014.98 1014.58 1014.30 1014.41 1014.50 1014.44 1014.36 1013.99 1013.01 1012.71 1012.95 1012.92 1012.51 1011.72 1011.05 1011.04 1011.46 1011.93 1012.03 1012.58 1013.09
1021.36 1021.23 1021.00 1020.64 1020.17 1019.53 1018.63 1019.28 1020.82 1021.32 1019.47 1017.95 1017.67 1017.65 1017.47 1017.48 1016.67 1016.06 1016.02 1015.96 1015.43 1015.32 1015.06 1015.28 1014.99 1014.69 1014.72 1014.90 1014.90 1014.96 1014.69 1014.12 1013.45 1012.80 1013.16 1012.98 1012.35 1011.48 1010.76 1010.30 1010.34 1011.23 1011.58 1012.03 1012.73
1021.00 1021.21 1021.11 1020.60 1020.07 1019.89 1020.08 1020.62 1020.90 1021.00 1020.36 1018.19 1017.77 1017.49 1017.47 1017.69 1017.05 1016.69 1016.56 1016.28 1015.81 1015.38 1015.22 1015.32 1014.89 1014.90 1014.99 1015.08 1015.19 1015.20 1015.09 1014.70 1014.46 1013.99 1013.56 1013.20 1012.35 1010.95 1009.70 1009.60 1009.51 1009.82 1010.63 1011.15 1011.89
1020.82 1021.00 1021.10 1020.56 1020.50 1020.13 1020.27 1020.79 1020.91 1020.83 1020.15 1018.48 1017.80 1017.60 1017.46 1017.17 1016.91 1016.69 1016.75 1016.98 1016.20 1015.84 1015.52 1015.29 1015.18 1015.23 1015.26 1015.35 1015.29 1015.36 1015.30 1015.27 1015.36 1015.46 1015.39 1014.32 1013.11 1011.13 1009.65 1009.31 1009.45 1009.58 1010.15 1010.79 1011.52
1020.53 1020.75 1020.90 1020.97 1021.04 1020.61 1021.08 1020.77 1020.72 1020.70 1019.96 1018.13 1017.50 1017.33 1016.90 1017.14 1016.85 1016.97 1017.05 1016.62 1016.30 1015.85 1016.08 1015.22 1015.31 1015.42 1015.24 1015.09 1015.19 1015.76 1015.94 1015.98 1016.21 1016.43 1016.19 1015.42 1014.71 1011.28 1009.88 1009.29 1009.28 1009.56 1009.95 1010.36 1011.02
1020.10 1020.50 1020.74 1020.59 1020.62 1020.42 1020.75 1020.86 1020.95 1020.51 1018.86 1017.76 1017.37 1017.09 1016.95 1016.64 1016.49 1016.69 1017.00 1017.08 1016.43 1016.08 1015.63 1015.42 1015.71 1015.82 1015.48 1015.45 1015.73 1016.14 1016.52 1016.60 1017.12 1017.51 1017.06 1015.23 1014.57 1012.00 1010.90 1010.80 1010.33 1010.01 1010.17 1010.55 1011.14
1019.98 1020.44 1021.02 1020.71 1020.92 1020.85 1020.81 1020.84 1020.85 1019.81 1017.69 1017.55 1017.10 1017.01 1016.71 1016.44 1015.83 1016.26 1016.54 1016.55 1016.66 1016.35 1015.74 1015.33 1015.66 1015.80 1015.78 1015.84 1016.20 1016.63 1017.22 1017.63 1017.97 1018.11 1016.92 1015.41 1014.55 1012.51 1011.67 1011.34 1011.49 1011.48 1011.34 1011.25 1011.42
1019.20 1020.57 1021.19 1021.31 1021.16 1021.12 1021.14 1021.26 1020.42 1018.90 1017.85 1017.32 1017.10 1016.75 1016.77 1015.98 1015.66 1015.94 1016.41 1016.25 1015.70 1015.80 1015.99 1015.88 1015.56 1015.79 1015.93 1015.70 1016.01 1016.61 1017.05 1017.90 1018.13 1017.92 1016.89 1015.87 1014.48 1012.67 1012.05 1011.89 1012.04 1012.10 1012.09 1012.01 1012.17
1019.56 1020.62 1020.92 1020.92 1021.30 1021.43 1021.72 1020.88 1019.14 1018.47 1017.65 1017.39 1017.25 1017.06 1016.67 1016.11 1016.55 1016.34 1016.03 1015.76 1015.54 1015.61 1016.35 1015.96 1015.60 1015.81 1015.98 1015.82 1015.94 1016.38 1016.92 1017.17 1017.80 1017.78 1017.36 1015.67 1013.82 1012.82 1012.38 1012.38 1012.49 1012.76 1012.73 1012.83 1012.81
1020.00 1020.71 1020.89 1020.78 1021.17 1021.53 1021.54 1020.31 1019.11 1017.72 1017.56 1017.67 1017.82 1017.84 1017.27 1016.91 1016.73 1016.51 1015.87 1015.35 1015.32 1015.65 1015.89 1016.42 1016.54 1016.31 1016.69 1016.77 1016.67 1016.46 1016.80 1017.48 1018.03 1018.21 1017.12 1015.06 1013.91 1013.25 1013.12 1013.02 1012.68 1012.99 1013.30 1013.42 1013.71
1019.96 1020.54 1021.02 1021.07 1021.11 1021.51 1020.74 1019.75 1018.72 1017.70 1017.58 1017.79 1017.89 1017.91 1017.60 1017.33 1017.05 1016.81 1016.18 1015.76 1015.69 1016.23 1016.31 1016.67 1017.04 1016.76 1016.82 1016.77 1016.32 1017.10 1017.13 1017.21 1017.64 1017.84 1017.64 1016.45 1014.97 1014.08 1013.78 1013.71 1013.47 1013.22 1013.66 1014.11 1014.50
1019.77 1020.62 1021.14 1021.23 1021.72 1021.14 1020.39 1019.26 1018.62 1017.97 1017.90 1018.14 1018.32 1017.90 1017.63 1017.55 1017.58 1017.14 1016.47 1016.04 1016.34 1016.77 1016.99 1017.04 1017.33 1017.08 1016.13 1015.75 1015.95 1016.51 1016.31 1016.79 1017.15 1017.13 1016.99 1016.89 1015.45 1014.48 1014.27 1014.02 1013.63 1013.86 1014.03 1014.64 1015.02
1019.69 1020.71 1021.50 1021.26 1020.93 1021.02 1020.48 1019.87 1018.87 1018.39 1017.92 1018.43 1018.64 1018.39 1017.70 1017.81 1018.08 1017.40 1016.96 1016.86 1016.73 1016.93 1017.38 1017.40 1017.65 1017.50 1016.14 1016.55 1016.72 1016.72 1016.34 1016.30 1016.66 1016.57 1016.41 1016.57 1015.34 1014.62 1014.06 1014.20 1013.83 1013.98 1014.44 1015.01 1015.49
1019.76 1020.40 1021.34 1021.39 1020.51 1020.21 1020.15 1019.69 1019.20 1018.91 1018.34 1018.09 1018.32 1018.49 1018.64 1018.22 1017.87 1017.47 1017.33 1017.23 1017.40 1017.46 1017.66 1018.11 1018.31 1017.79 1016.83 1016.06 1016.45 1016.90 1016.68 1016.19 1016.43 1016.55 1015.97 1015.21 1014.75 1014.80 1014.26 1014.25 1014.38 1014.50 1014.73 1015.07 1015.73
1018.88 1019.01 1019.42 1020.18 1020.21 1019.54 1019.90 1018.97 1019.03 1019.13 1018.78 1018.63 1018.85 1018.73 1018.43 1018.07 1018.36 1017.59 1017.43 1017.35 1017.50 1018.06 1018.01 1018.60 1018.42 1018.32 1017.64 1017.10 1016.64 1016.08 1016.05 1015.99 1016.08 1016.12 1015.86 1015.09 1014.67 1014.45 1014.26 1014.55 1015.07 1015.01 1014.83 1015.18 1015.61
1017.87 1018.20 1018.89 1019.06 1019.25 1019.68 1019.31 1018.75 1018.66 1018.53 1018.78 1018.67 1018.61 1018.37 1018.36 1017.72 1017.52 1017.67 1017.91 1017.78 1017.75 1018.11 1018.55 1018.55 1018.54 1018.42 1017.56 1017.57 1016.98 1015.85 1015.21 1015.31 1015.19 1015.34 1014.92 1014.85 1014.41 1014.34 1014.29 1014.68 1014.82 1015.16 1015.34 1015.24 1015.60
1017.24 1017.42 1017.70 1018.00 1018.34 1018.80 1018.32 1018.09 1017.99 1018.35 1017.92 1017.95 1018.02 1018.23 1017.99 1017.65 1017.82 1017.79 1018.13 1018.53 1018.33 1018.68 1019.04 1019.00 1018.92 1019.06 1017.46 1017.15 1016.92 1015.64 1014.21 1014.21 1014.31 1014.71 1014.80 1014.60 1014.68 1015.08 1015.22 1015.08 1015.61 1015.87 1015.91 1015.84 1015.86
Thickness
5686 5689 5690 5692 5695 5697 5700 5702 5705 5706 5708 5708 5708 5708 5708 5710 5712 5712 5700 5695 5697 5698 5702 5708 5707 5706 5703 5697 5693 5693 5667 5667 5682 5678 5670 5679 5668 5671 5667 5655 5658 5657 5647 5651 5651
5682 5685 5687 5689 5692 5694 5697 5700 5702 5704 5706 5706 5706 5706 5706 5706 5710 5701 5694 5695 5696 5696 5698 5698 5697 5695 5690 5692 5687 5674 5664 5672 5681 5677 5668 5669 5666 5658 5654 5649 5650 5646 5647 5644 5643
5677 5680 5683 5685 5688 5691 5694 5697 5699 5701 5703 5704 5704 5704 5704 5703 5704 5693 5692 5693 5695 5695 5696 5695 5695 5690 5685 5688 5683 5680 5663 5676 5676 5667 5664 5661 5658 5662 5649 5638 5650 5642 5642 5639 5637
5671 5674 5677 5680 5683 5686 5690 5692 5695 5697 5699 5700 5700 5700 5702 5703 5688 5689 5690 5691 5693 5694 5694 5692 5692 5686 5683 5677 5683 5663 5676 5674 5670 5663 5657 5654 5654 5650 5647 5646 5652 5652 5647 5640 5631
5666 5669 5672 5675 5678 5682 5685 5689 5692 5694 5695 5696 5697 5697 5699 5701 5687 5687 5686 5687 5689 5691 5687 5682 5682 5680 5674 5680 5676 5663 5668 5670 5667 5660 5654 5654 5644 5643 5643 5652 5653 5652 5646 5638 5635
5659 5663 5667 5670 5675 5679 5682 5685 5689 5691 5691 5693 5694 5695 5695 5692 5686 5684 5684 5683 5682 5683 5681 5679 5673 5672 5666 5669 5666 5667 5663 5660 5662 5658 5655 5643 5643 5644 5651 5652 5649 5646 5640 5637 5632
5653 5657 5661 5665 5670 5676 5680 5683 5686 5687 5686 5688 5690 5691 5693 5676 5682 5681 5680 5678 5677 5676 5675 5674 5671 5666 5666 5665 5662 5660 5650 5657 5658 5655 5647 5644 5634 5639 5646 5647 5641 5640 5639 5637 5631
5649 5651 5654 5658 5664 5672 5678 5681 5685 5685 5684 5684 5684 5688 5677 5678 5676 5677 5677 5676 5673 5673 5668 5668 5667 5665 5661 5661 5659 5650 5651 5638 5653 5651 5643 5635 5626 5646 5648 5638 5633 5636 5638 5633 5631
5644 5646 5648 5652 5657 5665 5675 5680 5681 5682 5682 5681 5681 5682 5672 5675 5671 5671 5670 5664 5665 5665 5664 5665 5659 5655 5655 5644 5636 5649 5625 5637 5639 5648 5643 5628 5627 5644 5644 5635 5629 5629 5631 5629 5624
5640 5642 5643 5646 5651 5657 5666 5677 5678 5677 5678 5677 5679 5671 5670 5664 5665 5663 5665 5662 5659 5659 5656 5654 5652 5645 5642 5636 5607 5626 5625 5636 5636 5636 5632 5623 5622 5634 5638 5634 5624 5626 5626 5625 5621
5634 5636 5637 5639 5642 5648 5655 5665 5661 5665 5658 5654 5651 5653 5657 5658 5660 5659 5656 5653 5656 5652 5648 5647 5635 5630 5641 5637 5633 5627 5620 5617 5630 5635 5627 5620 5623 5629 5638 5632 5626 5622 5622 5621 5620
5627 5628 5630 5632 5635 5639 5644 5637 5622 5619 5634 5647 5646 5642 5644 5643 5646 5651 5650 5645 5646 5640 5644 5634 5625 5634 5633 5627 5621 5616 5612 5610 5624 5633 5623 5616 5621 5628 5635 5636 5631 5623 5622 5619 5617
5624 5621 5621 5625 5629 5628 5624 5620 5617 5614 5620 5639 5640 5640 5639 5634 5636 5638 5638 5636 5635 5635 5636 5624 5631 5629 5623 5618 5614 5610 5607 5607 5607 5614 5620 5612 5611 5623 5638 5639 5637 5632 5626 5624 5617
5616 5616 5614 5617 5619 5619 5617 5611 5609 5606 5612 5620 5629 5630 5631 5631 5630 5632 5630 5622 5626 5623 5622 5619 5623 5618 5614 5608 5610 5598 5606 5603 5600 5587 5567 5609 5568 5624 5632 5632 5630 5628 5622 5617 5614
5611 5610 5608 5605 5604 5606 5601 5603 5603 5599 5597 5618 5624 5625 5626 5620 5621 5620 5619 5619 5615 5619 5613 5613 5614 5608 5605 5608 5609 5597 5596 5593 5590 5574 5572 5587 5554 5608 5631 5625 5624 5620 5619 5615 5609
5604 5603 5603 5602 5601 5601 5595 5593 5592 5594 5590 5609 5616 5616 5612 5613 5613 5610 5607 5603 5608 5605 5609 5605 5603 5596 5599 5599 5594 5590 5583 5582 5572 5559 5530 5572 5570 5591 5605 5602 5608 5612 5613 5609 5602
5589 5589 5586 5587 5589 5588 5587 5587 5581 5582 5616 5604 5605 5603 5604 5604 5611 5602 5601 5597 5589 5585 5597 5603 5595 5594 5591 5583 5581 5574 5564 5536 5527 5515 5539 5577 5565 5586 5590 5591 5590 5589 5591 5591 5593
5587 5575 5570 5568 5571 5573 5573 5572 5570 5584 5590 5596 5592 5594 5586 5601 5603 5597 5586 5582 5595 5590 5578 5572 5569 5581 5579 5578 5572 5562 5561 5541 5521 5535 5540 5562 5546 5571 5581 5582 5580 5578 5578 5578 5579
5573 5566 5566 5566 5559 5558 5557 5559 5570 5576 5588 5585 5583 5577 5580 5589 5578 5580 5579 5579 5587 5584 5562 5565 5571 5573 5572 5573 5568 5561 5540 5555 5539 5547 5508 5548 5571 5572 5572 5570 5564 5562 5564 5565 5566
5554 5551 5552 5551 5547 5545 5546 5557 5562 5579 5578 5571 5559 5563 5560 5571 5564 5567 5571 5580 5575 5573 5571 5561 5547 5563 5555 5553 5551 5548 5548 5527 5528 5508 5527 5546 5557 5540 5551 5554 5556 5551 5549 5551 5552
5541 5540 5536 5536 5537 5532 5540 5552 5562 5575 5569 5559 5555 5553 5555 5557 5559 5557 5560 5565 5564 5555 5554 5551 5543 5545 5545 5539 5542 5527 5525 5528 5524 5514 5504 5503 5532 5540 5536 5536 5539 5541 5537 5535 5533
5528 5532 5522 5522 5518 5521 5529 5544 5553 5558 5557 5548 5543 5548 5549 5550 5542 5545 5549 5552 5551 5544 5537 5540 5532 5525 5541 5547 5544 5535 5534 5526 5491 5513 5498 5490 5507 5529 5526 5524 5527 5526 5526 5520 5520
5510 5504 5501 5505 5517 5511 5518 5528 5537 5540 5539 5529 5528 5537 5543 5536 5523 5536 5538 5536 5536 5532 5527 5530 5514 5501 5529 5525 5527 5518 5525 5521 5519 5513 5509 5484 5507 5516 5519 5514 5518 5514 5511 5507 5505
5490 5488 5486 5489 5497 5509 5513 5516 5519 5520 5527 5529 5529 5526 5519 5517 5525 5520 5525 5528 5522 5519 5514 5507 5508 5509 5507 5521 5518 5507 5511 5512 5508 5490 5500 5506 5509 5498 5502 5503 5499 5500 5498 5496 5491
5482 5489 5488 5483 5491 5495 5500 5512 5509 5508 5509 5510 5501 5508 5503 5499 5500 5509 5512 5514 5514 5510 5501 5491 5485 5495 5506 5508 5509 5511 5507 5506 5496 5493 5483 5498 5495 5495 5497 5493 5485 5488 5492 5486 5485
5476 5480 5479 5488 5489 5478 5481 5495 5499 5501 5490 5489 5492 5498 5494 5495 5505 5493 5493 5502 5501 5496 5487 5482 5471 5483 5482 5487 5489 5493 5501 5503 5500 5495 5494 5488 5486 5491 5489 5480 5482 5480 5477 5482 5477
5465 5469 5472 5480 5479 5469 5481 5485 5487 5484 5492 5494 5490 5487 5488 5488 5485 5486 5479 5477 5476 5475 5467 5463 5461 5455 5471 5479 5473 5477 5494 5491 5492 5490 5486 5476 5479 5465 5467 5471 5458 5454 5457 5460 5464